sat.trackr.live / text

‹ back to catalog

STARLINK-34216

NORAD 64337 · 2025-124W

PAYLOAD ACTIVE UNKNOWN

§ Identity

Operator
Country
US
Launch date
2025-06-10
Launch site
AFETR
Launch vehicle
Mass (kg)
RCS (m²)

Purposes: comms

External: N2YO · Heavens-Above · Gunter

§ Orbital elements

Epoch: 2026-09-20T22:16:23.193408Z

Period
94.27 min
Inclination
43.0032°
Eccentricity
0.0001584
Mean motion
15.27580160 rev/d
Perigee alt
482.0 km
Apogee alt
484.1 km
Semi-major
6,861.2 km
B*
1.5913e-4
RAAN
98.7560°
Arg perigee
265.7226°
Mean anomaly
94.3444°
Rev number
7,164

§ Raw data

STARLINK-342161 64337U 25124W   26263.92804622  .00004119  00000+0  15913-3 0  99952 64337  43.0032  98.7560 0001584 265.7226  94.3444 15.27580160 71641

JSON: /api/v1/satellites/64337 · /tle

For live sub-satellite position, see the globe view (requires WebGL).

§ Visibility from observer

Set your observer location to see the next 7 days of passes ≥ 10°. The values pass through the URL so the page stays shareable.

No JS? Fill the form by hand. The geolocation button needs JavaScript.